• In Uzbekistan
  • List of Countries
  • For 7 days
  • Water Temperature
  • Satellite Maps
  • Weather Map
  • Weather Widgets
  • user-avatar
    Login

    Hourly Weather Quito

    Today, 29 March, Wednesday

    Time Temperature Precipitation Wind Pressure Humidity
    00:00 +16°C° 0.2 mm 1 mps 622 mmHg 96%
    01:00 +16°C° 0.2 mm 1 mps 622 mmHg 96%
    02:00 +16°C° 0.2 mm 1 mps 622 mmHg 96%
    03:00 +16°C° 0.2 mm 1 mps 622 mmHg 96%
    04:00 +16°C° 0.2 mm 1 mps 622 mmHg 96%
    05:00 +16°C° 0.1 mm 1 mps 622 mmHg 96%
    06:00 +16°C° 0.1 mm 1 mps 622 mmHg 95%
    07:00 +18°C° 0.1 mm 1 mps 623 mmHg 94%
    08:00 +19°C° 0 mm 2 mps 623 mmHg 85%
    09:00 +21°C° 0 mm 3 mps 624 mmHg 75%
    10:00 +23°C° 0 mm 4 mps 625 mmHg 66%
    11:00 +25°C° 0.2 mm 4 mps 624 mmHg 63%
    12:00 +25°C° 0.2 mm 4 mps 624 mmHg 59%
    13:00 +26°C° 0.2 mm 3 mps 623 mmHg 56%
    14:00 +26°C° 0.2 mm 3 mps 623 mmHg 58%
    15:00 +26°C° 0.2 mm 3 mps 622 mmHg 61%
    16:00 +25°C° 0.2 mm 3 mps 622 mmHg 63%
    17:00 +23°C° 0 mm 2 mps 621 mmHg 72%
    18:00 +20°C° 0 mm 2 mps 621 mmHg 80%
    19:00 +18°C° 0 mm 2 mps 621 mmHg 89%
    20:00 +18°C° 0.1 mm 2 mps 621 mmHg 90%
    21:00 +17°C° 0.1 mm 2 mps 622 mmHg 91%
    22:00 +17°C° 0.1 mm 2 mps 622 mmHg 92%
    23:00 +16°C° 0.1 mm 1 mps 622 mmHg 93%

    Tomorrow, 30 March, Thursday

    Time Temperature Precipitation Wind Pressure Humidity
    00:00 +16°C° 0.1 mm 1 mps 622 mmHg 95%
    01:00 +16°C° 0.1 mm 1 mps 621 mmHg 96%
    02:00 +15°C° 0.1 mm 1 mps 621 mmHg 96%
    03:00 +15°C° 0.1 mm 1 mps 621 mmHg 97%
    04:00 +15°C° 0.1 mm 1 mps 621 mmHg 97%
    05:00 +15°C° 0.1 mm 1 mps 622 mmHg 95%
    06:00 +16°C° 0.1 mm 1 mps 622 mmHg 94%
    07:00 +18°C° 0.1 mm 1 mps 623 mmHg 93%
    08:00 +19°C° 0.2 mm 3 mps 624 mmHg 86%
    09:00 +20°C° 0.2 mm 4 mps 624 mmHg 80%
    10:00 +22°C° 0.2 mm 5 mps 625 mmHg 73%
    11:00 +22°C° 0.3 mm 4 mps 624 mmHg 73%
    12:00 +22°C° 0.3 mm 4 mps 624 mmHg 73%
    13:00 +22°C° 0.3 mm 4 mps 623 mmHg 73%
    14:00 +22°C° 0.3 mm 4 mps 623 mmHg 74%
    15:00 +22°C° 0.3 mm 3 mps 622 mmHg 76%
    16:00 +22°C° 0.3 mm 3 mps 622 mmHg 78%
    17:00 +20°C° 0.1 mm 3 mps 622 mmHg 84%
    18:00 +19°C° 0.1 mm 2 mps 622 mmHg 90%
    19:00 +18°C° 0.1 mm 1 mps 622 mmHg 96%
    20:00 +18°C° 0.6 mm 1 mps 622 mmHg 96%
    21:00 +18°C° 0.6 mm 1 mps 623 mmHg 96%
    22:00 +16°C° 0.6 mm 1 mps 623 mmHg 96%
    23:00 +16°C° 0.3 mm 1 mps 623 mmHg 96%

    Day after tomorrow, 31 March, Friday

    Time Temperature Precipitation Wind Pressure Humidity
    00:00 +16°C° 0.3 mm 1 mps 623 mmHg 96%
    01:00 +16°C° 0.3 mm 1 mps 622 mmHg 97%
    02:00 +15°C° 0.6 mm 1 mps 622 mmHg 97%
    03:00 +15°C° 0.6 mm 1 mps 622 mmHg 97%
    04:00 +15°C° 0.6 mm 1 mps 622 mmHg 97%
    05:00 +16°C° 0.1 mm 1 mps 622 mmHg 96%
    06:00 +16°C° 0.1 mm 1 mps 623 mmHg 95%
    07:00 +18°C° 0.1 mm 1 mps 624 mmHg 95%
    08:00 +19°C° 0.1 mm 2 mps 624 mmHg 84%
    09:00 +20°C° 0.1 mm 3 mps 625 mmHg 74%
    10:00 +22°C° 0.1 mm 4 mps 626 mmHg 64%
    11:00 +23°C° 0.2 mm 4 mps 625 mmHg 63%
    12:00 +25°C° 0.2 mm 4 mps 625 mmHg 61%
    13:00 +25°C° 0.2 mm 3 mps 624 mmHg 60%
    14:00 +25°C° 0.5 mm 3 mps 624 mmHg 65%
    15:00 +24°C° 0.5 mm 2 mps 624 mmHg 70%
    16:00 +24°C° 0.5 mm 2 mps 623 mmHg 75%
    17:00 +21°C° 0.2 mm 2 mps 623 mmHg 81%
    18:00 +20°C° 0.2 mm 1 mps 623 mmHg 88%
    19:00 +18°C° 0.2 mm 1 mps 623 mmHg 94%
    20:00 +18°C° 0.1 mm 1 mps 623 mmHg 95%
    21:00 +16°C° 0.1 mm 1 mps 623 mmHg 95%
    22:00 +14°C° 0.1 mm 0 mps 623 mmHg 96%
    23:00 +14°C° 0 mm 0 mps 623 mmHg 96%

    1 April, Saturday

    Time Temperature Precipitation Wind Pressure Humidity
    00:00 +14°C° 0 mm 0 mps 622 mmHg 96%
    01:00 +13°C° 0 mm 0 mps 622 mmHg 96%
    02:00 +13°C° 0 mm 0 mps 622 mmHg 96%
    03:00 +14°C° 0 mm 1 mps 621 mmHg 96%
    04:00 +14°C° 0 mm 1 mps 621 mmHg 95%
    05:00 +15°C° 0 mm 1 mps 622 mmHg 95%
    06:00 +16°C° 0 mm 1 mps 623 mmHg 94%
    07:00 +16°C° 0 mm 1 mps 624 mmHg 93%
    08:00 +19°C° 0.1 mm 2 mps 624 mmHg 83%
    09:00 +21°C° 0.1 mm 3 mps 625 mmHg 72%
    10:00 +23°C° 0.1 mm 4 mps 626 mmHg 61%
    11:00 +25°C° 0.1 mm 4 mps 625 mmHg 56%
    12:00 +26°C° 0.1 mm 4 mps 625 mmHg 52%
    13:00 +27°C° 0.1 mm 4 mps 624 mmHg 48%
    14:00 +26°C° 0.2 mm 3 mps 624 mmHg 51%
    15:00 +26°C° 0.2 mm 3 mps 623 mmHg 55%
    16:00 +25°C° 0.2 mm 3 mps 623 mmHg 58%
    17:00 +22°C° 0.5 mm 3 mps 622 mmHg 70%
    18:00 +20°C° 0.5 mm 2 mps 622 mmHg 81%
    19:00 +17°C° 0.5 mm 2 mps 622 mmHg 93%
    20:00 +18°C° 0.3 mm 1 mps 622 mmHg 94%
    21:00 +16°C° 0.3 mm 1 mps 623 mmHg 95%
    22:00 +16°C° 0.3 mm 1 mps 623 mmHg 96%
    23:00 +15°C° 0.2 mm 1 mps 622 mmHg 96%

    2 April, Sunday

    Time Temperature Precipitation Wind Pressure Humidity
    00:00 +15°C° 0.2 mm 1 mps 622 mmHg 96%
    01:00 +14°C° 0.2 mm 1 mps 622 mmHg 96%
    02:00 +14°C° 0.1 mm 1 mps 622 mmHg 95%
    03:00 +14°C° 0.1 mm 1 mps 621 mmHg 95%
    04:00 +14°C° 0.1 mm 1 mps 621 mmHg 95%
    05:00 +15°C° 0 mm 1 mps 622 mmHg 94%
    06:00 +16°C° 0 mm 1 mps 623 mmHg 92%
    07:00 +18°C° 0 mm 1 mps 624 mmHg 91%
    08:00 +18°C° 0.3 mm 2 mps 624 mmHg 83%
    09:00 +20°C° 0.3 mm 3 mps 625 mmHg 76%
    10:00 +22°C° 0.3 mm 4 mps 625 mmHg 68%
    11:00 +23°C° 0.3 mm 4 mps 625 mmHg 65%
    12:00 +23°C° 0.3 mm 4 mps 624 mmHg 62%
    13:00 +25°C° 0.3 mm 4 mps 624 mmHg 59%
    14:00 +25°C° 0.2 mm 3 mps 623 mmHg 61%
    15:00 +24°C° 0.2 mm 3 mps 623 mmHg 63%
    16:00 +24°C° 0.2 mm 3 mps 623 mmHg 66%
    17:00 +21°C° 0 mm 2 mps 622 mmHg 74%
    18:00 +19°C° 0 mm 2 mps 622 mmHg 82%
    19:00 +18°C° 0 mm 1 mps 622 mmHg 90%
    20:00 +18°C° 0 mm 1 mps 622 mmHg 92%
    21:00 +16°C° 0 mm 1 mps 622 mmHg 93%
    22:00 +15°C° 0 mm 1 mps 622 mmHg 94%
    23:00 +15°C° 0.4 mm 1 mps 622 mmHg 94%

    3 April, Monday

    Time Temperature Precipitation Wind Pressure Humidity
    00:00 +15°C° 0.4 mm 1 mps 621 mmHg 95%
    01:00 +14°C° 0.4 mm 1 mps 621 mmHg 95%
    02:00 +14°C° 0.2 mm 1 mps 621 mmHg 95%
    03:00 +14°C° 0.2 mm 1 mps 621 mmHg 95%
    04:00 +14°C° 0.2 mm 1 mps 621 mmHg 95%
    05:00 +15°C° 0.2 mm 1 mps 622 mmHg 93%
    06:00 +15°C° 0.2 mm 1 mps 623 mmHg 90%
    07:00 +16°C° 0.2 mm 1 mps 624 mmHg 88%
    08:00 +19°C° 0.1 mm 2 mps 624 mmHg 75%
    09:00 +21°C° 0.1 mm 3 mps 625 mmHg 62%
    10:00 +23°C° 0.1 mm 4 mps 626 mmHg 48%
    11:00 +25°C° 0 mm 4 mps 625 mmHg 46%
    12:00 +26°C° 0 mm 4 mps 625 mmHg 44%
    13:00 +27°C° 0 mm 3 mps 624 mmHg 41%
    14:00 +27°C° 0 mm 3 mps 624 mmHg 43%
    15:00 +26°C° 0 mm 3 mps 623 mmHg 45%
    16:00 +26°C° 0 mm 3 mps 623 mmHg 46%
    17:00 +23°C° 0 mm 2 mps 622 mmHg 57%
    18:00 +19°C° 0 mm 2 mps 622 mmHg 69%
    19:00 +16°C° 0 mm 1 mps 621 mmHg 80%
    20:00 +16°C° 0 mm 1 mps 621 mmHg 80%
    21:00 +15°C° 0 mm 1 mps 621 mmHg 80%
    22:00 +15°C° 0 mm 1 mps 622 mmHg 80%
    23:00 +14°C° 0 mm 1 mps 621 mmHg 82%
    Show more